Waupaca, WI

6:49 PM CDT on March 26, 2017 (GMT -0500)
Waupaca Municipal

Weather History for KPCZ - November, 2013

Change the Weather History Date:

Friday, November 1, 2013

  Actual Average Record
Temperature  
Mean Temperature 45 °F -  
Max Temperature 47 °F 52 °F 72 °F (1950)
Min Temperature 43 °F 35 °F 13 °F (1951)
Degree Days  
Heating Degree Days 20    
Moisture  
Dew Point 41 °F    
Average Humidity 87    
Maximum Humidity 93    
Minimum Humidity 79    
Precipitation  
Precipitation 0.01 in - - ()
Sea Level Pressure  
Sea Level Pressure 29.51 in    
Wind  
Wind Speed 11 mph (West)    
Max Wind Speed 17 mph    
Max Gust Speed 25 mph    
Visibility 9 miles    
Events Rain    
Averages and records for this station are not official NWS values.
T = Trace of Precipitation, MM = Missing Value Source: NWS Daily Summary

Daily Weather History Graph

Daily Weather History Graph

Search for Another Location

Airport or City:

Trip Planner

Search our weather history database for the weather conditions in past years. The results will help you decide how hot, cold, wet, or windy it might be!

Date:

Astronomy

Nov. 01, 2013 Rise Set
Actual Time 7:33 AM CDT 5:45 PM CDT
Civil Twilight 7:03 AM CDT 6:15 PM CDT
Nautical Twilight 6:28 AM CDT 6:49 PM CDT
Astronomical Twilight 5:55 AM CDT 7:23 PM CDT
Moon 5:21 AM CDT (11/1) 4:41 PM CDT (11/1)
Length of Visible Light 11h 12m
Length of Day
10h 11m
Waning Crescent, 4% of the Moon is Illuminated
Nov 1
Waning Crescent
Nov 3
New
Nov 9
First Quarter
Nov 17
Full
Nov 25
Last Quarter

Hourly Weather History & Observations

Time (CDT) Temp. Windchill Dew Point Humidity Pressure Visibility Wind Dir Wind Speed Gust Speed Precip Events Conditions
12:15 AM 45.1 °F 38.8 °F 42.6 °F 91% 29.25 in 7.0 mi West 13.8 mph 20.7 mph N/A   Overcast
12:35 AM 45.0 °F 38.9 °F 42.3 °F 90% 29.26 in 10.0 mi West 12.7 mph 17.3 mph N/A   Overcast
12:55 AM 44.6 °F 37.8 °F 41.9 °F 90% 29.27 in 7.0 mi West 15.0 mph 20.7 mph N/A   Overcast
1:15 AM 44.6 °F 37.8 °F 42.1 °F 91% 29.28 in 5.0 mi West 15.0 mph 21.9 mph N/A   Overcast
1:35 AM 43.9 °F 37.2 °F 41.5 °F 91% 29.28 in 7.0 mi West 13.8 mph 23.0 mph N/A   Overcast
1:55 AM 44.1 °F 37.1 °F 41.0 °F 89% 29.28 in 10.0 mi West 15.0 mph 25.3 mph N/A   Overcast
2:15 AM 43.7 °F 36.3 °F 41.0 °F 90% 29.29 in 7.0 mi West 16.1 mph - N/A   Overcast
2:35 AM 43.7 °F 36.0 °F 40.6 °F 89% 29.29 in 10.0 mi West 17.3 mph 21.9 mph N/A   Overcast
2:55 AM 43.7 °F 36.6 °F 40.5 °F 88% 29.30 in 10.0 mi West 15.0 mph 21.9 mph N/A   Overcast
3:15 AM 43.7 °F 36.3 °F 40.5 °F 88% 29.30 in 10.0 mi West 16.1 mph 21.9 mph N/A   Overcast
3:35 AM 43.7 °F 37.3 °F 40.5 °F 88% 29.31 in 10.0 mi West 12.7 mph 20.7 mph N/A   Overcast
3:55 AM 43.7 °F 37.3 °F 40.5 °F 88% 29.32 in 10.0 mi West 12.7 mph 18.4 mph N/A   Overcast
4:15 AM 43.7 °F 37.7 °F 40.6 °F 89% 29.33 in 10.0 mi West 11.5 mph 18.4 mph N/A   Overcast
4:55 AM 43.3 °F 36.8 °F 41.0 °F 91% 29.34 in 7.0 mi West 12.7 mph - N/A   Overcast
5:15 AM 43.3 °F 37.2 °F 41.2 °F 92% 29.36 in 4.0 mi West 11.5 mph 19.6 mph N/A   Overcast
5:35 AM 43.2 °F 37.0 °F 41.2 °F 93% 29.36 in 5.0 mi West 11.5 mph 18.4 mph N/A   Overcast
5:55 AM 43.3 °F 37.7 °F 41.4 °F 93% 29.37 in 10.0 mi West 10.4 mph - N/A   Overcast
6:15 AM 43.3 °F 37.7 °F 41.4 °F 93% 29.39 in 7.0 mi West 10.4 mph - N/A   Overcast
6:35 AM 43.7 °F 38.1 °F 41.4 °F 91% 29.39 in 7.0 mi West 10.4 mph - 0.01 in Rain Light Rain
6:55 AM 43.7 °F 38.1 °F 41.5 °F 92% 29.40 in 10.0 mi West 10.4 mph 17.3 mph 0.01 in Rain Rain
7:15 AM 43.7 °F 38.6 °F 41.9 °F 93% 29.41 in 10.0 mi West 9.2 mph - N/A   Overcast
7:35 AM 43.7 °F 38.1 °F 41.9 °F 93% 29.42 in 7.0 mi West 10.4 mph - N/A   Overcast
7:55 AM 43.7 °F 39.1 °F 41.9 °F 93% 29.43 in 10.0 mi West 8.1 mph - N/A   Overcast
8:15 AM 44.1 °F 40.1 °F 42.3 °F 93% 29.44 in 10.0 mi West 6.9 mph - N/A   Overcast
8:35 AM 44.6 °F 40.2 °F 42.8 °F 93% 29.45 in 10.0 mi West 8.1 mph - N/A   Overcast
8:55 AM 44.6 °F 39.2 °F 42.8 °F 93% 29.46 in 10.0 mi West 10.4 mph - N/A   Overcast
9:15 AM 44.8 °F 40.4 °F 42.8 °F 93% 29.48 in 10.0 mi West 8.1 mph - N/A   Overcast
9:35 AM 45.1 °F 39.9 °F 43.2 °F 93% 29.48 in 10.0 mi West 10.4 mph - N/A   Overcast
9:55 AM 45.1 °F 39.9 °F 43.0 °F 92% 29.48 in 5.0 mi West 10.4 mph 17.3 mph N/A   Overcast
10:15 AM 45.1 °F 39.5 °F 43.0 °F 92% 29.49 in 5.0 mi West 11.5 mph 19.6 mph N/A   Overcast
10:35 AM 45.5 °F 40.8 °F 43.2 °F 92% 29.50 in 7.0 mi West 9.2 mph - N/A   Overcast
10:55 AM 45.7 °F 40.6 °F 43.3 °F 92% 29.50 in 10.0 mi West 10.4 mph - N/A   Overcast
11:15 AM 46.0 °F 41.0 °F 43.3 °F 90% 29.51 in 10.0 mi West 10.4 mph - N/A   Overcast
11:35 AM 46.4 °F 41.9 °F 43.3 °F 89% 29.51 in 10.0 mi West 9.2 mph 17.3 mph N/A   Overcast
11:55 AM 46.6 °F - 42.8 °F 87% 29.52 in 10.0 mi West 10.4 mph - N/A   Overcast
12:15 PM 47.3 °F - 42.4 °F 83% 29.53 in 10.0 mi WNW 11.5 mph - N/A   Overcast
12:35 PM 47.3 °F - 41.9 °F 82% 29.53 in 10.0 mi WNW 8.1 mph 18.4 mph N/A   Overcast
12:55 PM 47.5 °F - 42.1 °F 82% 29.53 in 10.0 mi West 6.9 mph - N/A   Overcast
1:15 PM 47.5 °F - 41.2 °F 79% 29.54 in 10.0 mi West 9.2 mph - N/A   Overcast
1:35 PM 46.6 °F - 41.2 °F 81% 29.54 in 7.0 mi West 8.1 mph - N/A   Overcast
1:55 PM 46.4 °F 42.9 °F 42.3 °F 85% 29.55 in 7.0 mi West 6.9 mph - N/A   Light Drizzle
2:15 PM 46.4 °F 41.9 °F 42.8 °F 87% 29.56 in 7.0 mi West 9.2 mph - N/A   Light Drizzle
2:35 PM 46.4 °F 42.9 °F 43.0 °F 88% 29.56 in 7.0 mi West 6.9 mph - N/A Rain Light Rain
2:55 PM 46.4 °F 42.9 °F 42.8 °F 87% 29.57 in 10.0 mi West 6.9 mph - N/A Rain Light Rain
3:15 PM 45.9 °F 42.9 °F 42.3 °F 87% 29.58 in 10.0 mi West 5.8 mph - N/A   Overcast
5:15 PM 46.2 °F 43.3 °F 40.1 °F 79% 29.62 in 10.0 mi NW 5.8 mph - N/A   Overcast
5:35 PM 45.9 °F 42.9 °F 40.1 °F 80% 29.63 in 10.0 mi NW 5.8 mph - N/A   Overcast
5:55 PM 45.9 °F 42.3 °F 39.9 °F 80% 29.64 in 10.0 mi NW 6.9 mph - N/A   Overcast
6:15 PM 45.9 °F 42.9 °F 39.6 °F 79% 29.65 in 10.0 mi WNW 5.8 mph - N/A   Overcast
6:35 PM 45.7 °F 41.0 °F 39.7 °F 80% 29.66 in 10.0 mi WNW 9.2 mph - N/A   Overcast
6:55 PM 45.5 °F 43.2 °F 40.1 °F 81% 29.67 in 10.0 mi West 4.6 mph - N/A   Overcast
7:15 PM 45.1 °F 42.8 °F 40.5 °F 84% 29.68 in 10.0 mi West 4.6 mph - N/A   Overcast
7:35 PM 44.8 °F 42.4 °F 41.0 °F 87% 29.68 in 10.0 mi West 4.6 mph - N/A   Overcast
7:55 PM 44.6 °F 43.1 °F 41.0 °F 87% 29.69 in 10.0 mi WNW 3.5 mph - N/A   Overcast
8:15 PM 44.8 °F 43.3 °F 40.3 °F 84% 29.69 in 10.0 mi WNW 3.5 mph - N/A   Overcast
8:35 PM 44.8 °F 42.4 °F 40.1 °F 84% 29.69 in 10.0 mi WNW 4.6 mph - N/A   Overcast
8:55 PM 44.8 °F 42.4 °F 39.6 °F 82% 29.70 in 10.0 mi WNW 4.6 mph - N/A   Overcast
9:15 PM 44.8 °F 42.4 °F 39.6 °F 82% 29.71 in 10.0 mi WNW 4.6 mph - N/A   Overcast
9:35 PM 44.8 °F 43.3 °F 39.6 °F 82% 29.71 in 10.0 mi WNW 3.5 mph - N/A   Overcast
9:55 PM 44.8 °F 42.4 °F 39.6 °F 82% 29.71 in 10.0 mi WNW 4.6 mph - N/A   Overcast
10:15 PM 44.8 °F 41.0 °F 39.6 °F 82% 29.72 in 10.0 mi WNW 6.9 mph - N/A   Overcast
10:35 PM 44.8 °F 42.4 °F 39.7 °F 82% 29.73 in 10.0 mi WNW 4.6 mph - N/A   Overcast
10:55 PM 44.8 °F 42.4 °F 39.7 °F 82% 29.73 in 10.0 mi NW 4.6 mph - N/A   Overcast
11:15 PM 44.6 °F 41.4 °F 40.1 °F 84% 29.73 in 10.0 mi NW 5.8 mph - N/A   Overcast
11:35 PM 44.6 °F 41.4 °F 40.1 °F 84% 29.73 in 10.0 mi NW 5.8 mph - N/A   Overcast
11:55 PM 44.6 °F 41.4 °F 40.1 °F 84% 29.73 in 10.0 mi NW 5.8 mph - N/A   Overcast